User: anonymous   Login
Location: Poprad
(49.0500°N, 20.3000°E)
Time: 00:51:50
(UTC+02:00)
Language:

UKube-1 - Orbit

View from above orbital plane
View from above orbital plane
View from above satellite
View from above satellite

Ground track
Ground track

The orbit data is extracted from the following two-line orbital elements,

1 40074U 14037F   24114.59387816  .00014328  00000-0  13907-2 0  9999
2 40074  98.3424  41.2129 0002420 235.9749 124.1239 14.92755172530635
Epoch (UTC): 23 April 2024 14:15:11
Eccentricity: 0.0002420
inclination: 98.3424°
perigee height: 587 km
apogee height: 591 km
right ascension of ascending node: 41.2129°
argument of perigee: 235.9749°
revolutions per day: 14.92755172
mean anomaly at epoch: 124.1239°
orbit number at epoch: 53063

The dashed part of the orbit path shows where the satellite is in the earth's shadow,  

DLR